TimeCDT,TemperatureF,Dew PointF,Humidity,Sea Level PressureIn,VisibilityMPH,Wind Direction,Wind SpeedMPH,Gust SpeedMPH,PrecipitationIn,Events,Conditions,WindDirDegrees,DateUTC
12:15 AM,51.8,39.2,62,30.08,10.0,Calm,Calm,-,N/A,,Clear,0,2012-09-29 05:15:00
12:35 AM,48.2,39.2,71,30.08,10.0,SSW,3.5,-,N/A,,Clear,210,2012-09-29 05:35:00
12:55 AM,48.2,39.2,71,30.08,10.0,WSW,3.5,-,N/A,,Clear,240,2012-09-29 05:55:00
1:15 AM,50.0,39.2,66,30.08,10.0,WSW,5.8,-,N/A,,Clear,240,2012-09-29 06:15:00
1:35 AM,48.2,39.2,71,30.08,10.0,SW,3.5,-,N/A,,Clear,230,2012-09-29 06:35:00
1:55 AM,50.0,39.2,66,30.07,10.0,West,3.5,-,N/A,,Clear,260,2012-09-29 06:55:00
2:15 AM,48.2,41.0,76,30.07,10.0,West,3.5,-,N/A,,Clear,260,2012-09-29 07:15:00
2:35 AM,50.0,42.8,76,30.06,10.0,Calm,Calm,-,N/A,,Clear,0,2012-09-29 07:35:00
2:55 AM,50.0,42.8,76,30.06,10.0,WNW,3.5,-,N/A,,Clear,290,2012-09-29 07:55:00
3:15 AM,48.2,42.8,82,30.07,10.0,West,3.5,-,N/A,,Clear,260,2012-09-29 08:15:00
3:35 AM,48.2,44.6,87,30.06,10.0,WNW,4.6,-,N/A,,Clear,290,2012-09-29 08:35:00
3:55 AM,48.2,44.6,87,30.06,10.0,Calm,Calm,-,N/A,,Clear,0,2012-09-29 08:55:00
4:15 AM,50.0,44.6,82,30.06,10.0,Calm,Calm,-,N/A,,Clear,0,2012-09-29 09:15:00
4:35 AM,48.2,44.6,87,30.07,10.0,Calm,Calm,-,N/A,,Clear,0,2012-09-29 09:35:00
4:55 AM,48.2,44.6,87,30.07,10.0,West,3.5,-,N/A,,Clear,280,2012-09-29 09:55:00
5:15 AM,48.2,44.6,87,30.07,10.0,West,3.5,-,N/A,,Clear,260,2012-09-29 10:15:00
5:35 AM,48.2,44.6,87,30.07,10.0,Calm,Calm,-,N/A,,Clear,0,2012-09-29 10:35:00
5:55 AM,46.4,44.6,93,30.06,10.0,Calm,Calm,-,N/A,,Clear,0,2012-09-29 10:55:00
6:15 AM,46.4,44.6,93,30.07,10.0,Calm,Calm,-,N/A,,Clear,0,2012-09-29 11:15:00
6:35 AM,48.2,44.6,87,30.07,10.0,Calm,Calm,-,N/A,,Clear,0,2012-09-29 11:35:00
6:55 AM,48.2,44.6,87,30.07,10.0,Calm,Calm,-,N/A,,Clear,0,2012-09-29 11:55:00
7:15 AM,48.2,44.6,87,30.08,10.0,Calm,Calm,-,N/A,,Partly Cloudy,0,2012-09-29 12:15:00
7:35 AM,48.2,46.4,93,30.08,10.0,Calm,Calm,-,N/A,,Partly Cloudy,0,2012-09-29 12:35:00
7:55 AM,50.0,46.4,87,30.08,5.0,NNW,3.5,-,N/A,,Clear,330,2012-09-29 12:55:00
8:15 AM,53.6,51.8,94,30.08,10.0,NW,3.5,-,N/A,,Clear,320,2012-09-29 13:15:00
8:35 AM,55.4,53.6,94,30.09,10.0,NNW,6.9,-,N/A,,Clear,340,2012-09-29 13:35:00
8:55 AM,57.2,53.6,88,30.09,10.0,NNW,8.1,-,N/A,,Clear,340,2012-09-29 13:55:00
9:15 AM,57.2,53.6,88,30.09,10.0,North,6.9,-,N/A,,Clear,350,2012-09-29 14:15:00
9:35 AM,59.0,51.8,77,30.09,10.0,NNW,6.9,-,N/A,,Clear,330,2012-09-29 14:35:00
9:55 AM,60.8,51.8,72,30.09,10.0,North,9.2,-,N/A,,Clear,350,2012-09-29 14:55:00
10:15 AM,60.8,51.8,72,30.09,10.0,North,8.1,-,N/A,,Clear,350,2012-09-29 15:15:00
10:35 AM,60.8,50.0,68,30.08,10.0,NNW,9.2,-,N/A,,Clear,340,2012-09-29 15:35:00
10:55 AM,62.6,46.4,55,30.08,10.0,North,9.2,-,N/A,,Clear,360,2012-09-29 15:55:00
11:15 AM,62.6,46.4,55,30.08,10.0,North,10.4,-,N/A,,Clear,350,2012-09-29 16:15:00
11:35 AM,62.6,44.6,52,30.08,10.0,North,11.5,-,N/A,,Clear,360,2012-09-29 16:35:00
11:55 AM,64.4,41.0,42,30.07,10.0,North,10.4,-,N/A,,Clear,360,2012-09-29 16:55:00
12:15 PM,64.4,41.0,42,30.07,10.0,North,10.4,-,N/A,,Clear,350,2012-09-29 17:15:00
12:35 PM,64.4,39.2,40,30.07,10.0,North,9.2,-,N/A,,Clear,360,2012-09-29 17:35:00
12:55 PM,66.2,37.4,35,30.06,10.0,North,10.4,-,N/A,,Clear,350,2012-09-29 17:55:00
1:15 PM,64.4,33.8,32,30.06,10.0,North,11.5,-,N/A,,Clear,350,2012-09-29 18:15:00
1:35 PM,66.2,33.8,30,30.05,10.0,North,11.5,-,N/A,,Clear,350,2012-09-29 18:35:00
1:55 PM,66.2,37.4,35,30.05,10.0,North,10.4,-,N/A,,Clear,360,2012-09-29 18:55:00
2:15 PM,66.2,35.6,32,30.05,10.0,North,10.4,-,N/A,,Clear,360,2012-09-29 19:15:00
2:35 PM,66.2,37.4,35,30.04,10.0,North,9.2,-,N/A,,Clear,360,2012-09-29 19:35:00
2:55 PM,66.2,35.6,32,30.04,10.0,North,11.5,-,N/A,,Clear,360,2012-09-29 19:55:00
3:15 PM,66.2,37.4,35,30.04,10.0,North,10.4,-,N/A,,Clear,360,2012-09-29 20:15:00
3:35 PM,66.2,39.2,37,30.04,10.0,North,9.2,-,N/A,,Clear,10,2012-09-29 20:35:00
3:55 PM,66.2,42.8,43,30.03,10.0,NNE,6.9,-,N/A,,Clear,20,2012-09-29 20:55:00
4:15 PM,64.4,44.6,49,30.03,10.0,ENE,6.9,-,N/A,,Clear,70,2012-09-29 21:15:00
4:35 PM,64.4,44.6,49,30.04,10.0,ENE,6.9,-,N/A,,Clear,60,2012-09-29 21:35:00
4:55 PM,62.6,46.4,55,30.04,10.0,East,6.9,-,N/A,,Clear,90,2012-09-29 21:55:00
5:15 PM,62.6,44.6,52,30.04,10.0,East,6.9,-,N/A,,Clear,80,2012-09-29 22:15:00
5:35 PM,62.6,44.6,52,30.04,10.0,ENE,5.8,-,N/A,,Clear,70,2012-09-29 22:35:00
5:55 PM,60.8,44.6,55,30.04,10.0,ENE,6.9,-,N/A,,Clear,70,2012-09-29 22:55:00
6:15 PM,59.0,46.4,63,30.04,10.0,East,5.8,-,N/A,,Clear,80,2012-09-29 23:15:00
6:35 PM,57.2,46.4,67,30.04,10.0,East,5.8,-,N/A,,Clear,80,2012-09-29 23:35:00
6:55 PM,57.2,48.2,72,30.04,10.0,East,3.5,-,N/A,,Clear,80,2012-09-29 23:55:00
7:15 PM,55.4,48.2,77,30.04,10.0,ENE,4.6,-,N/A,,Clear,60,2012-09-30 00:15:00
7:35 PM,55.4,48.2,77,30.04,10.0,NE,3.5,-,N/A,,Clear,50,2012-09-30 00:35:00
7:55 PM,53.6,48.2,82,30.04,10.0,NNE,5.8,-,N/A,,Clear,30,2012-09-30 00:55:00
8:15 PM,53.6,48.2,82,30.05,10.0,NE,4.6,-,N/A,,Clear,40,2012-09-30 01:15:00
8:35 PM,51.8,46.4,82,30.04,10.0,NNE,3.5,-,N/A,,Clear,20,2012-09-30 01:35:00
8:55 PM,50.0,46.4,87,30.04,10.0,NNE,5.8,-,N/A,,Clear,30,2012-09-30 01:55:00
9:15 PM,51.8,46.4,82,30.05,10.0,NNE,5.8,-,N/A,,Clear,20,2012-09-30 02:15:00
9:35 PM,51.8,46.4,82,30.05,10.0,NNE,8.1,-,N/A,,Clear,30,2012-09-30 02:35:00
9:55 PM,51.8,46.4,82,30.05,10.0,NNE,6.9,-,N/A,,Clear,20,2012-09-30 02:55:00
10:15 PM,51.8,44.6,76,30.05,10.0,NNE,8.1,-,N/A,,Clear,20,2012-09-30 03:15:00
10:35 PM,51.8,44.6,76,30.06,10.0,NNE,8.1,-,N/A,,Clear,30,2012-09-30 03:35:00
10:55 PM,51.8,44.6,76,30.06,10.0,NNE,9.2,-,N/A,,Clear,20,2012-09-30 03:55:00
11:15 PM,51.8,46.4,82,30.05,10.0,NNE,9.2,-,N/A,,Clear,30,2012-09-30 04:15:00
11:35 PM,50.0,46.4,87,30.05,10.0,NNE,9.2,-,N/A,,Clear,20,2012-09-30 04:35:00
11:55 PM,50.0,44.6,82,30.04,10.0,North,6.9,-,N/A,,Clear,360,2012-09-30 04:55:00